Find Starlink 1738

NORAD ID: 46336 Int'l Des: 2020-062 Owner: SPXS Country: US Constellation: starlink decayed
LEOCIRCULAR
Vis

Historical Track — Mar 13, 2026

Loading 3D Globe...

About Starlink 1738

Description loading...

Altitude History

Loading altitude history...

Two-Line Element Set

1 46336U 20062M 26071.02363644 .02563630 11836-4 11952-2 0 9994
2 46336 53.0208 267.8063 0006981 263.0714 96.9530 16.20929291306036
Epoch: Mar 12, 2026 • Age: 798 hours

Current Status

Position data unavailable
Launch Date Sep 3, 2020
Age 5.6 years
Decay Date Mar 13, 2026
Type internet

Technical Details

Classification Payload
Mass 260.00 kg
Dry Mass 248.00 kg
Total Mass 260.00 kg
Length 0.20 m
Diameter 2.80 m
Span 9.00 m
Shape Box + pan
Manufacturer SPXS
Bus Type Starlink
Phase Status Unknown Transfer Status
Owner/State SPXS/US

Most Searched